Simultaneous Nadir Overpasses (SNOs) Predictions

Prediction of SNOs between GOES-16 and METOP-B Satellite Orbit:

Table of predicted SNOs for the next 14.0 days since TLE Epoch: 4/15/2023
Index Date Time (GOES-16) GOES-16 Lat,Lon METOP-B Lat,Lon Distance(km) Time Diff (sec)
1 04/15/2023 14:47:52 0.05, -75.22 0.88, -78.99 428.87 80
2 04/16/2023 14:24:32 0.05, -75.23 -0.21, -73.99 140.91 80
3 04/18/2023 02:46:13 -0.05, -75.23 -0.78, -78.60 382.84 80
4 04/19/2023 02:22:54 -0.05, -75.25 0.32, -73.60 187.47 80
5 04/20/2023 14:44:26 0.05, -75.28 0.67, -78.17 328.76 80
6 04/21/2023 14:21:07 0.05, -75.30 -0.43, -73.18 241.88 80
7 04/23/2023 02:42:47 -0.05, -75.31 -0.60, -77.78 280.90 80
8 04/24/2023 02:19:28 -0.04, -75.33 0.51, -72.78 289.89 80
9 04/25/2023 14:41:00 0.04, -75.37 0.47, -77.35 225.66 80
10 04/26/2023 14:17:40 0.03, -75.39 -0.65, -72.36 345.53 80
11 04/28/2023 02:39:21 -0.03, -75.41 -0.37, -76.96 176.13 80
12 04/29/2023 02:16:01 -0.03, -75.44 0.75, -71.97 395.51 80
